X

Important NEWS



New Hub Active

Miami is our new hub! Old members can request transfer via hr@dlxairways.net

Thank you very much and have nice flight.


Deluxe Airways.

X

Tours



Hello again, we created one nice test tour for all pilots to attend. also this is ment to be testing of our tour system

Available Tours

If you find some issues please inform us.

Thank you very much and have nice flight.


Deluxe Airways.

 METAR AND TAF INFORMATION
ArrayMETAR FOR UUDD
22983004 5 UUDD 250530Z 34002MPS CAVOK 18/01 Q1025 R88/95D NOSIG UUDD 2019-04-25T05:30:00Z 55.4 37.9 18.0 1.0 340 4 6.21 30.265747 TRUE VFR METAR 168.0 UUDD 250500Z 33002MPS 300V030 CAVOK 16/03 Q1025 R88/95D NOSIG UUDD 2019-04-25T05:00:00Z 55.4 37.9 16.0 3.0 330 4 6.21 30.265747 TRUE VFR METAR 168.0 UUDD 250430Z 26002MPS 230V310 CAVOK 14/03 Q1025 R88/CLRD95 NOSIG UUDD 2019-04-25T04:30:00Z 55.4 37.9 14.0 3.0 260 4 6.21 30.265747 TRUE VFR METAR 168.0 UUDD 250400Z 26002MPS 210V300 CAVOK 12/03 Q1025 R32L/CLRD95 NOSIG UUDD 2019-04-25T04:00:00Z 55.4 37.9 12.0 3.0 260 4 6.21 30.265747 TRUE VFR METAR 168.0

 AIRPORT MAP

 RUNWAY INFORMATION
Runway 14C Runway length 8531 ft Runway width 148 ft
Runway elevation 585 ft Runway displaced threshold 0 ft Runway heading 146
Runway 32C Runway length 8531 ft Runway width 148 ft
Runway elevation 538 ft Runway displaced threshold 0 ft Runway heading 326
Runway 14L Runway length 12448 ft Runway width 174 ft
Runway elevation 551 ft Runway displaced threshold 0 ft Runway heading 146
Runway 32R Runway length 12448 ft Runway width 174 ft
Runway elevation 519 ft Runway displaced threshold 0 ft Runway heading 326
Runway 14R Runway length 11483 ft Runway width 230 ft
Runway elevation 588 ft Runway displaced threshold 0 ft Runway heading 146
Runway 32L Runway length 11483 ft Runway width 230 ft
Runway elevation 527 ft Runway displaced threshold 0 ft Runway heading 326

 AIRPORT FREQUENCIES
Type APP Name APP Frequency 120.6 MHZ
Type ATIS Name ATIS Frequency 128.3 MHZ
Type CLD Name DELIVERY Frequency 123.75 MHZ
Type GND Name TAXIING Frequency 119 MHZ
Type MISC Name TRANSIT Frequency 129.15 MHZ
Type PMSV Name VOLMET Frequency 127.875 MHZ
Type RDR Name KRUG Frequency 127.7 MHZ
Type RMP Name APRON Frequency 130.6 MHZ
Type TWR Name TWR Frequency 118.6 MHZ

 AIRPORT NEAR NAVIGATION AIDS
Type NDB Name Domodedovo Frequency 437 KHZ
Type NDB Name Domodedovo Frequency 659 KHZ
Type NDB Name Domodedovo Frequency 659 KHZ
Type NDB Name Domodedovo Frequency 437 KHZ
Type NDB Name Domodedovo Frequency 887 KHZ
Type NDB Name Domodedovo Frequency 320 KHZ
Type NDB Name Domodedovo Frequency 320 KHZ
Type NDB Name Domodedovo Frequency 887 KHZ



Powered by Virtual Airlines Manager [v2.6.2]

Template code change by DeluxeAir